When you browse on this site, cookies collect data to enhance your experience and personalize the content and advertising you see.
Visit our Privacy Policy to learn more. By continuing to use the site, you agree to this use of cookies and data.
  • In Romania
  • List of Countries
  • For 7 days
  • Water Temperature
  • Weather Map
  • Weather Widgets
  • user-avatar
    Login

    Hourly Weather Ho Chi Minh

    Today, 26 August, Monday

    Time Temperature Precipitation Wind Pressure Humidity
    00:00 +28°C° 0 mm 3 mps 756 mmHg 88%
    01:00 +27°C° 0 mm 2 mps 756 mmHg 89%
    02:00 +27°C° 0 mm 2 mps 755 mmHg 89%
    03:00 +27°C° 0 mm 2 mps 755 mmHg 90%
    04:00 +27°C° 0 mm 2 mps 755 mmHg 90%
    05:00 +27°C° 0.1 mm 2 mps 755 mmHg 89%
    06:00 +28°C° 0.1 mm 2 mps 755 mmHg 88%
    07:00 +28°C° 0 mm 2 mps 756 mmHg 87%
    08:00 +29°C° 1.7 mm 3 mps 756 mmHg 82%
    09:00 +30°C° 1.7 mm 4 mps 756 mmHg 78%
    10:00 +33°C° 1.7 mm 5 mps 756 mmHg 73%
    11:00 +33°C° 2.3 mm 4 mps 755 mmHg 72%
    12:00 +33°C° 2.3 mm 4 mps 755 mmHg 72%
    13:00 +33°C° 2.3 mm 4 mps 754 mmHg 72%
    14:00 +33°C° 1.2 mm 4 mps 754 mmHg 72%
    15:00 +33°C° 1.2 mm 3 mps 754 mmHg 73%
    16:00 +33°C° 1.2 mm 3 mps 754 mmHg 73%
    17:00 +31°C° 0.4 mm 3 mps 754 mmHg 77%
    18:00 +30°C° 0.4 mm 2 mps 754 mmHg 80%
    19:00 +29°C° 0.4 mm 2 mps 755 mmHg 84%
    20:00 +29°C° 0 mm 2 mps 755 mmHg 84%
    21:00 +28°C° 0 mm 2 mps 756 mmHg 85%
    22:00 +28°C° 0 mm 1 mps 756 mmHg 85%
    23:00 +28°C° 0 mm 1 mps 756 mmHg 86%

    Tomorrow, 27 August, Tuesday

    Time Temperature Precipitation Wind Pressure Humidity
    00:00 +28°C° 0 mm 2 mps 756 mmHg 86%
    01:00 +27°C° 0 mm 2 mps 755 mmHg 87%
    02:00 +27°C° 0 mm 1 mps 755 mmHg 87%
    03:00 +27°C° 0 mm 1 mps 755 mmHg 87%
    04:00 +27°C° 0 mm 1 mps 755 mmHg 88%
    05:00 +27°C° 0 mm 1 mps 755 mmHg 86%
    06:00 +28°C° 0 mm 1 mps 755 mmHg 85%
    07:00 +28°C° 0 mm 1 mps 756 mmHg 83%
    08:00 +29°C° 0 mm 2 mps 755 mmHg 78%
    09:00 +31°C° 0 mm 2 mps 755 mmHg 72%
    10:00 +33°C° 0 mm 3 mps 755 mmHg 67%
    11:00 +34°C° 0.1 mm 3 mps 755 mmHg 65%
    12:00 +35°C° 0.1 mm 3 mps 754 mmHg 63%
    13:00 +35°C° 0.1 mm 3 mps 754 mmHg 61%
    14:00 +35°C° 0.7 mm 3 mps 753 mmHg 63%
    15:00 +34°C° 0.7 mm 4 mps 753 mmHg 65%
    16:00 +34°C° 0.7 mm 4 mps 752 mmHg 67%
    17:00 +33°C° 0.5 mm 3 mps 753 mmHg 72%
    18:00 +31°C° 0.5 mm 3 mps 753 mmHg 77%
    19:00 +29°C° 0.5 mm 3 mps 754 mmHg 82%
    20:00 +29°C° 0 mm 3 mps 754 mmHg 83%
    21:00 +29°C° 0 mm 3 mps 755 mmHg 84%
    22:00 +28°C° 0 mm 3 mps 756 mmHg 85%
    23:00 +28°C° 0 mm 3 mps 756 mmHg 86%

    Day after tomorrow, 28 August, Wednesday

    Time Temperature Precipitation Wind Pressure Humidity
    00:00 +28°C° 0 mm 3 mps 755 mmHg 87%
    01:00 +28°C° 0 mm 2 mps 755 mmHg 87%
    02:00 +28°C° 0 mm 2 mps 755 mmHg 88%
    03:00 +28°C° 0 mm 2 mps 755 mmHg 88%
    04:00 +28°C° 0 mm 2 mps 754 mmHg 88%
    05:00 +28°C° 0 mm 2 mps 755 mmHg 88%
    06:00 +28°C° 0 mm 2 mps 755 mmHg 87%
    07:00 +28°C° 0 mm 2 mps 755 mmHg 87%
    08:00 +29°C° 0 mm 2 mps 755 mmHg 83%
    09:00 +30°C° 0 mm 3 mps 755 mmHg 79%
    10:00 +31°C° 0 mm 3 mps 755 mmHg 75%
    11:00 +33°C° 0.2 mm 3 mps 755 mmHg 70%
    12:00 +34°C° 0.2 mm 3 mps 754 mmHg 65%
    13:00 +35°C° 0.2 mm 3 mps 753 mmHg 60%
    14:00 +35°C° 1 mm 3 mps 753 mmHg 63%
    15:00 +34°C° 1 mm 3 mps 753 mmHg 65%
    16:00 +34°C° 1 mm 3 mps 752 mmHg 68%
    17:00 +32°C° 1.1 mm 4 mps 753 mmHg 72%
    18:00 +30°C° 1.1 mm 4 mps 753 mmHg 76%
    19:00 +29°C° 1.1 mm 5 mps 753 mmHg 80%
    20:00 +29°C° 0.6 mm 4 mps 754 mmHg 82%
    21:00 +29°C° 0.6 mm 4 mps 755 mmHg 84%
    22:00 +28°C° 0.6 mm 4 mps 755 mmHg 86%
    23:00 +28°C° 0.5 mm 3 mps 755 mmHg 86%

    29 August, Thursday

    Time Temperature Precipitation Wind Pressure Humidity
    00:00 +28°C° 0.5 mm 3 mps 754 mmHg 87%
    01:00 +28°C° 0.5 mm 3 mps 754 mmHg 87%
    02:00 +28°C° 0.8 mm 3 mps 753 mmHg 87%
    03:00 +28°C° 0.8 mm 3 mps 753 mmHg 88%
    04:00 +27°C° 0.8 mm 3 mps 753 mmHg 88%
    05:00 +27°C° 2.3 mm 3 mps 753 mmHg 88%
    06:00 +27°C° 2.3 mm 4 mps 753 mmHg 89%
    07:00 +27°C° 2.3 mm 4 mps 754 mmHg 89%
    08:00 +27°C° 2.6 mm 4 mps 754 mmHg 89%
    09:00 +28°C° 2.6 mm 4 mps 754 mmHg 88%
    10:00 +28°C° 2.6 mm 3 mps 754 mmHg 87%
    11:00 +28°C° 3 mm 3 mps 754 mmHg 89%
    12:00 +28°C° 3 mm 4 mps 753 mmHg 90%
    13:00 +27°C° 3 mm 4 mps 753 mmHg 91%
    14:00 +27°C° 4.2 mm 5 mps 752 mmHg 91%
    15:00 +27°C° 4.2 mm 5 mps 752 mmHg 92%
    16:00 +27°C° 4.2 mm 5 mps 752 mmHg 92%
    17:00 +27°C° 1.5 mm 6 mps 752 mmHg 92%
    18:00 +27°C° 1.5 mm 6 mps 752 mmHg 91%
    19:00 +27°C° 1.5 mm 6 mps 753 mmHg 91%
    20:00 +27°C° 1.5 mm 6 mps 753 mmHg 92%
    21:00 +26°C° 1.5 mm 5 mps 754 mmHg 92%
    22:00 +26°C° 1.5 mm 5 mps 754 mmHg 93%
    23:00 +26°C° 0.9 mm 5 mps 754 mmHg 93%

    30 August, Friday

    Time Temperature Precipitation Wind Pressure Humidity
    00:00 +26°C° 0.9 mm 5 mps 753 mmHg 92%
    01:00 +26°C° 0.9 mm 6 mps 753 mmHg 92%
    02:00 +26°C° 2.6 mm 5 mps 753 mmHg 92%
    03:00 +26°C° 2.6 mm 5 mps 752 mmHg 93%
    04:00 +26°C° 2.6 mm 4 mps 752 mmHg 93%
    05:00 +26°C° 0.6 mm 4 mps 753 mmHg 92%
    06:00 +26°C° 0.6 mm 4 mps 753 mmHg 92%
    07:00 +26°C° 0.6 mm 4 mps 753 mmHg 92%
    08:00 +27°C° 0.7 mm 5 mps 754 mmHg 90%
    09:00 +27°C° 0.7 mm 5 mps 754 mmHg 89%
    10:00 +28°C° 0.7 mm 5 mps 754 mmHg 88%
    11:00 +28°C° 1.4 mm 6 mps 754 mmHg 87%
    12:00 +27°C° 1.4 mm 6 mps 753 mmHg 87%
    13:00 +27°C° 1.4 mm 7 mps 752 mmHg 87%
    14:00 +28°C° 0.5 mm 6 mps 752 mmHg 86%
    15:00 +28°C° 0.5 mm 6 mps 752 mmHg 85%
    16:00 +28°C° 0.5 mm 6 mps 752 mmHg 84%
    17:00 +28°C° 0.5 mm 6 mps 752 mmHg 84%
    18:00 +27°C° 0.5 mm 6 mps 752 mmHg 85%
    19:00 +27°C° 0.5 mm 6 mps 753 mmHg 86%
    20:00 +27°C° 0 mm 5 mps 753 mmHg 87%
    21:00 +27°C° 0 mm 4 mps 754 mmHg 88%
    22:00 +26°C° 0 mm 3 mps 755 mmHg 89%
    23:00 +26°C° 0.1 mm 3 mps 754 mmHg 89%

    31 August, Saturday

    Time Temperature Precipitation Wind Pressure Humidity
    00:00 +26°C° 0.1 mm 3 mps 754 mmHg 89%
    01:00 +26°C° 0.1 mm 2 mps 753 mmHg 90%
    02:00 +26°C° 0 mm 2 mps 753 mmHg 90%
    03:00 +26°C° 0 mm 2 mps 753 mmHg 89%
    04:00 +26°C° 0 mm 2 mps 753 mmHg 89%
    05:00 +26°C° 0 mm 3 mps 753 mmHg 88%
    06:00 +27°C° 0 mm 3 mps 753 mmHg 87%
    07:00 +27°C° 0 mm 3 mps 754 mmHg 86%
    08:00 +28°C° 0.1 mm 4 mps 754 mmHg 81%
    09:00 +30°C° 0.1 mm 5 mps 754 mmHg 75%
    10:00 +32°C° 0.1 mm 6 mps 754 mmHg 69%
    11:00 +33°C° 1 mm 6 mps 754 mmHg 70%
    12:00 +33°C° 1 mm 6 mps 753 mmHg 70%
    13:00 +33°C° 1 mm 6 mps 753 mmHg 70%
    14:00 +32°C° 1.4 mm 6 mps 752 mmHg 72%
    15:00 +32°C° 1.4 mm 6 mps 752 mmHg 74%
    16:00 +30°C° 1.4 mm 5 mps 752 mmHg 76%
    17:00 +30°C° 0.6 mm 4 mps 753 mmHg 78%
    18:00 +29°C° 0.6 mm 3 mps 753 mmHg 81%
    19:00 +28°C° 0.6 mm 2 mps 753 mmHg 84%
    20:00 +28°C° 0 mm 2 mps 754 mmHg 85%
    21:00 +27°C° 0 mm 2 mps 755 mmHg 85%
    22:00 +27°C° 0 mm 1 mps 755 mmHg 86%
    23:00 +27°C° 0.2 mm 1 mps 755 mmHg 86%
    Show more